Hulett, WY

5:35 PM MST on December 14, 2019 (GMT -0700)
Hulett

Weather History for KW43 - June, 2019

Change the Weather History Date:

Wednesday, June 5, 2019

  Actual Average (KEFC) Record (KEFC)
Temperature  
Mean Temperature 65 °F -  
Max Temperature 80 °F 78 °F 99 °F (1969)
Min Temperature 50 °F 49 °F 36 °F (1962)
Growing Degree Days 15 (Base 50)    
Moisture  
Dew Point 50 °F    
Average Humidity 59    
Maximum Humidity 82    
Minimum Humidity 37    
Precipitation  
Precipitation 0.00 in - - ()
Sea Level Pressure  
Sea Level Pressure 30.01 in    
Wind  
Wind Speed 6 mph (SSW)    
Max Wind Speed 16 mph    
Max Gust Speed 24 mph    
Visibility 10 miles    
Events Rain , Thunderstorm    
Averages and records for this station are not official NWS values.
T = Trace of Precipitation, MM = Missing Value Source: NWS Daily Summary

Daily Weather History Graph

Daily Weather History Graph

Search for Another Location

Airport or City:

Astronomy

Jun. 05, 2019 Rise Set
Actual Time 5:14 AM MDT 8:39 PM MDT
Civil Twilight 4:37 AM MDT 9:16 PM MDT
Nautical Twilight 3:50 AM MDT 10:03 PM MDT
Astronomical Twilight 2:50 AM MDT 11:04 PM MDT
Moon 7:22 AM MDT (6/5) 11:07 PM MDT (6/5)
Length of Visible Light 16h 38m
Length of Day
15h 25m
Waxing Crescent, 7% of the Moon is Illuminated
Jun 5
Waxing Crescent
Jun 10
First Quarter
Jun 17
Full
Jun 25
Last Quarter
Jul 2
New

Hourly Weather History & Observations

Time (MDT) Temp. Dew Point Humidity Pressure Visibility Wind Dir Wind Speed Gust Speed Precip Events Conditions
12:15 AM 55.4 °F 44.6 °F 67% 30.04 in 10.0 mi SSE 6.9 mph - N/A   Clear
12:35 AM 53.6 °F 44.6 °F 72% 30.04 in 10.0 mi SSE 6.9 mph - N/A   Clear
12:55 AM 55.4 °F 44.6 °F 67% 30.04 in 10.0 mi SSE 8.1 mph - N/A   Clear
1:15 AM 53.6 °F 44.6 °F 72% 30.04 in 10.0 mi South 5.8 mph - N/A   Clear
1:35 AM 51.8 °F 44.6 °F 76% 30.03 in 10.0 mi South 5.8 mph - N/A   Clear
1:55 AM 51.8 °F 44.6 °F 76% 30.03 in 10.0 mi Calm Calm - N/A   Clear
2:15 AM 51.8 °F 44.6 °F 76% 30.03 in 10.0 mi SSE 3.5 mph - N/A   Clear
2:35 AM 51.8 °F 44.6 °F 76% 30.03 in 10.0 mi SSE 8.1 mph - N/A   Clear
2:55 AM 51.8 °F 44.6 °F 76% 30.02 in 10.0 mi SSE 5.8 mph - N/A   Clear
3:15 AM 51.8 °F 44.6 °F 76% 30.02 in 10.0 mi SSE 3.5 mph - N/A   Clear
3:35 AM 51.8 °F 44.6 °F 76% 30.02 in 10.0 mi South 5.8 mph - N/A   Clear
3:55 AM 50.0 °F 44.6 °F 82% 30.02 in 10.0 mi South 5.8 mph - N/A   Scattered Clouds
4:15 AM 51.8 °F 44.6 °F 76% 30.02 in 10.0 mi SSW 5.8 mph - N/A   Mostly Cloudy
4:35 AM 53.6 °F 44.6 °F 72% 30.02 in 10.0 mi Calm Calm - N/A   Mostly Cloudy
4:55 AM 53.6 °F 44.6 °F 72% 30.02 in 10.0 mi SSW 4.6 mph - N/A   Mostly Cloudy
5:15 AM 53.6 °F 44.6 °F 72% 30.02 in 10.0 mi WSW 5.8 mph - N/A   Mostly Cloudy
5:35 AM 50.0 °F 44.6 °F 82% 30.03 in 10.0 mi SSW 5.8 mph - N/A   Mostly Cloudy
5:55 AM 51.8 °F 44.6 °F 76% 30.03 in 10.0 mi SW 3.5 mph - N/A   Scattered Clouds
6:15 AM 53.6 °F 44.6 °F 72% 30.03 in 10.0 mi South 3.5 mph - N/A   Clear
6:35 AM 55.4 °F 44.6 °F 67% 30.03 in 10.0 mi SSW 4.6 mph - N/A   Clear
6:55 AM 59.0 °F 46.4 °F 63% 30.03 in 10.0 mi Calm Calm - N/A   Mostly Cloudy
7:15 AM 59.0 °F 50.0 °F 72% 30.03 in 10.0 mi Calm Calm - N/A   Overcast
7:35 AM 60.8 °F 50.0 °F 68% 30.03 in 10.0 mi Calm Calm - N/A   Mostly Cloudy
7:55 AM 60.8 °F 50.0 °F 68% 30.03 in 10.0 mi Calm Calm - N/A   Scattered Clouds
8:15 AM 64.4 °F 51.8 °F 64% 30.03 in 10.0 mi WNW 3.5 mph - N/A   Scattered Clouds
8:35 AM 68.0 °F 50.0 °F 52% 30.03 in 10.0 mi Calm Calm - N/A   Scattered Clouds
8:55 AM 71.6 °F 51.8 °F 50% 30.02 in 10.0 mi SW 5.8 mph - N/A   Scattered Clouds
9:15 AM 71.6 °F 51.8 °F 50% 30.03 in 10.0 mi WSW 6.9 mph - N/A   Mostly Cloudy
9:35 AM 71.6 °F 50.0 °F 46% 30.03 in 10.0 mi SW 9.2 mph - N/A   Overcast
9:55 AM 71.6 °F 50.0 °F 46% 30.02 in 10.0 mi Calm Calm - N/A   Overcast
10:15 AM 73.4 °F 50.0 °F 44% 30.02 in 10.0 mi South 3.5 mph - N/A   Mostly Cloudy
10:35 AM 75.2 °F 48.2 °F 38% 30.01 in 10.0 mi SSW 10.4 mph - N/A   Overcast
10:55 AM 75.2 °F 50.0 °F 41% 30.01 in 10.0 mi SSW 11.5 mph 17.3 mph N/A Thunderstorm Thunderstorm
11:15 AM 73.4 °F 48.2 °F 41% 30.02 in 10.0 mi SW 13.8 mph 18.4 mph N/A   Mostly Cloudy
11:35 AM 73.4 °F 50.0 °F 44% 30.03 in 10.0 mi SW 13.8 mph 20.7 mph N/A   Mostly Cloudy
11:55 AM 71.6 °F 50.0 °F 46% 30.03 in 10.0 mi SW 8.1 mph 17.3 mph N/A Rain Rain
12:15 PM 71.6 °F 51.8 °F 50% 30.02 in 10.0 mi SSW 8.1 mph - N/A   Mostly Cloudy
12:35 PM 73.4 °F 51.8 °F 47% 30.03 in 10.0 mi NW 4.6 mph - N/A   Scattered Clouds
12:55 PM 77.0 °F 51.8 °F 41% 30.02 in 10.0 mi WSW 6.9 mph - N/A Thunderstorm Scattered Clouds
1:15 PM 77.0 °F 51.8 °F 41% 30.01 in 10.0 mi SSW 11.5 mph - N/A   Scattered Clouds
1:35 PM 78.8 °F 51.8 °F 39% 30.01 in 10.0 mi SW 8.1 mph - N/A   Clear
1:55 PM 78.8 °F 53.6 °F 42% 30.01 in 10.0 mi SSW 13.8 mph 17.3 mph N/A   Clear
2:15 PM 78.8 °F 53.6 °F 42% 30.01 in 10.0 mi SSW 5.8 mph - N/A   Clear
2:35 PM 78.8 °F 53.6 °F 42% 29.99 in 10.0 mi SSW 10.4 mph - N/A   Clear
2:55 PM 78.8 °F 51.8 °F 39% 29.98 in 10.0 mi SSW 10.4 mph 17.3 mph N/A Thunderstorm Clear
3:15 PM 80.6 °F 51.8 °F 37% 29.98 in 10.0 mi SW 11.5 mph 17.3 mph N/A Thunderstorm Clear
3:35 PM 73.4 °F 55.4 °F 53% 29.99 in 10.0 mi NE 9.2 mph 24.2 mph N/A   Scattered Clouds
3:55 PM 71.6 °F 55.4 °F 57% 29.99 in 10.0 mi NNE 13.8 mph 18.4 mph N/A Thunderstorm Mostly Cloudy
4:15 PM 68.0 °F 53.6 °F 60% 30.00 in 10.0 mi ENE 10.4 mph 21.9 mph N/A Thunderstorm Thunderstorm
4:35 PM 73.4 °F 53.6 °F 50% 29.99 in 10.0 mi East 16.1 mph 19.6 mph N/A   Mostly Cloudy
4:55 PM 75.2 °F 53.6 °F 47% 29.99 in 10.0 mi East 11.5 mph 18.4 mph N/A   Scattered Clouds
5:15 PM 77.0 °F 53.6 °F 44% 29.99 in 10.0 mi ESE 9.2 mph - N/A   Clear
5:35 PM 75.2 °F 57.2 °F 53% 29.99 in 10.0 mi North 10.4 mph - N/A   Clear
5:55 PM 75.2 °F 55.4 °F 50% 29.99 in 10.0 mi NE 3.5 mph - N/A   Clear
6:15 PM 73.4 °F 57.2 °F 57% 29.99 in 10.0 mi North 8.1 mph - N/A   Clear
6:35 PM 73.4 °F 53.6 °F 50% 29.98 in 10.0 mi North 3.5 mph - N/A   Clear
6:55 PM 73.4 °F 53.6 °F 50% 29.98 in 10.0 mi East 4.6 mph - N/A   Clear
7:15 PM 73.4 °F 51.8 °F 47% 29.99 in 10.0 mi ENE 3.5 mph - N/A   Clear
7:35 PM 73.4 °F 51.8 °F 47% 29.98 in 10.0 mi Calm Calm - N/A   Clear
7:55 PM 69.8 °F 55.4 °F 60% 29.99 in 10.0 mi Calm Calm - N/A   Clear
8:15 PM 69.8 °F 55.4 °F 60% 29.99 in 10.0 mi Calm Calm - N/A   Clear
8:35 PM 68.0 °F 55.4 °F 64% 29.99 in 10.0 mi Calm Calm - N/A   Clear
8:55 PM 66.2 °F 55.4 °F 68% 29.99 in 10.0 mi North 3.5 mph - N/A   Clear
9:15 PM 64.4 °F 55.4 °F 73% 29.99 in 10.0 mi NNE 4.6 mph - N/A   Clear
9:35 PM 60.8 °F 55.4 °F 82% 30.01 in 10.0 mi SE 8.1 mph - N/A   Clear
9:55 PM 62.6 °F 55.4 °F 77% 30.02 in 10.0 mi South 3.5 mph - N/A   Scattered Clouds
10:15 PM 62.6 °F 53.6 °F 72% 30.02 in 10.0 mi South 6.9 mph - N/A   Scattered Clouds
10:35 PM 62.6 °F 51.8 °F 68% 30.02 in 10.0 mi SW 4.6 mph - N/A   Scattered Clouds
10:55 PM 64.4 °F 50.0 °F 59% 30.02 in 10.0 mi WSW 4.6 mph - N/A   Scattered Clouds
11:15 PM 62.6 °F 50.0 °F 63% 30.01 in 10.0 mi WSW 5.8 mph - N/A   Scattered Clouds
11:35 PM 62.6 °F 46.4 °F 55% 30.01 in 10.0 mi WSW 6.9 mph - N/A   Clear
11:55 PM 62.6 °F 46.4 °F 55% 30.00 in 10.0 mi SW 4.6 mph - N/A   Clear